When you browse on this site, cookies collect data to enhance your experience and personalize the content and advertising you see.
Visit our Privacy Policy to learn more. By continuing to use the site, you agree to this use of cookies and data.
  • In Hungary
  • List of Countries
  • For 7 days
  • Water Temperature
  • Satellite Maps
  • Weather Map
  • News
  • Weather Widgets
  • user-avatar
    Login

    Hourly Weather Arezzo

    Today, 13 December, Thursday

    Time Temperature Precipitation Wind Pressure Humidity
    00:00 +5°C° 0.1 mm 1 mps 738 mmHg 62%
    01:00 +6°C° 0 mm 1 mps 738 mmHg 65%
    02:00 +5°C° 0.4 mm 1 mps 737 mmHg 67%
    03:00 +5°C° 0.4 mm 1 mps 737 mmHg 70%
    04:00 +5°C° 0.4 mm 1 mps 736 mmHg 73%
    05:00 +5°C° 0.4 mm 1 mps 736 mmHg 75%
    06:00 +5°C° 0.4 mm 1 mps 736 mmHg 77%
    07:00 +5°C° 0.4 mm 1 mps 735 mmHg 79%
    08:00 +5°C° 0.1 mm 1 mps 735 mmHg 79%
    09:00 +5°C° 0.1 mm 1 mps 735 mmHg 78%
    10:00 +6°C° 0.1 mm 1 mps 735 mmHg 77%
    11:00 +6°C° 0 mm 1 mps 735 mmHg 75%
    12:00 +6°C° 0 mm 2 mps 735 mmHg 73%
    13:00 +6°C° 0 mm 2 mps 735 mmHg 71%
    14:00 +6°C° 0 mm 2 mps 735 mmHg 74%
    15:00 +7°C° 0 mm 1 mps 735 mmHg 77%
    16:00 +6°C° 0 mm 1 mps 734 mmHg 80%
    17:00 +5°C° 0 mm 1 mps 734 mmHg 82%
    18:00 +5°C° 0 mm 1 mps 734 mmHg 85%
    19:00 +4°C° 0 mm 1 mps 734 mmHg 87%
    20:00 +4°C° 0.1 mm 1 mps 734 mmHg 86%
    21:00 +4°C° 0.1 mm 1 mps 734 mmHg 86%
    22:00 +5°C° 0.1 mm 1 mps 734 mmHg 86%
    23:00 +5°C° 0.3 mm 1 mps 734 mmHg 86%

    Tomorrow, 14 December, Friday

    Time Temperature Precipitation Wind Pressure Humidity
    00:00 +5°C° 0.3 mm 1 mps 734 mmHg 86%
    01:00 +4°C° 0.3 mm 2 mps 734 mmHg 86%
    02:00 +4°C° 0.5 mm 2 mps 734 mmHg 87%
    03:00 +4°C° 0.5 mm 2 mps 734 mmHg 88%
    04:00 +4°C° 0.5 mm 2 mps 734 mmHg 89%
    05:00 +5°C° 0.8 mm 2 mps 734 mmHg 90%
    06:00 +5°C° 0.8 mm 2 mps 734 mmHg 90%
    07:00 +4°C° 0.8 mm 3 mps 734 mmHg 91%
    08:00 +4°C° 0.6 mm 3 mps 734 mmHg 90%
    09:00 +5°C° 0.6 mm 3 mps 734 mmHg 90%
    10:00 +5°C° 0.6 mm 3 mps 735 mmHg 89%
    11:00 +5°C° 0.4 mm 4 mps 735 mmHg 88%
    12:00 +6°C° 0.4 mm 4 mps 735 mmHg 87%
    13:00 +6°C° 0.4 mm 5 mps 735 mmHg 85%
    14:00 +6°C° 0.3 mm 4 mps 735 mmHg 86%
    15:00 +5°C° 0.3 mm 4 mps 735 mmHg 86%
    16:00 +5°C° 0.3 mm 4 mps 735 mmHg 86%
    17:00 +5°C° 0.3 mm 4 mps 735 mmHg 86%
    18:00 +4°C° 0.3 mm 4 mps 736 mmHg 86%
    19:00 +4°C° 0.3 mm 3 mps 736 mmHg 86%
    20:00 +3°C° 0.2 mm 3 mps 736 mmHg 86%
    21:00 +3°C° 0.2 mm 3 mps 737 mmHg 86%
    22:00 +2°C° 0.2 mm 3 mps 737 mmHg 86%
    23:00 +2°C° 0 mm 3 mps 737 mmHg 87%

    Day after tomorrow, 15 December, Saturday

    Time Temperature Precipitation Wind Pressure Humidity
    00:00 +2°C° 0 mm 3 mps 737 mmHg 87%
    01:00 +1°C° 0 mm 3 mps 737 mmHg 87%
    02:00 +1°C° 0 mm 3 mps 737 mmHg 88%
    03:00 +1°C° 0 mm 3 mps 737 mmHg 88%
    04:00 +1°C° 0 mm 3 mps 737 mmHg 89%
    05:00 0°C° 0 mm 3 mps 737 mmHg 89%
    06:00 +1°C° 0 mm 2 mps 738 mmHg 89%
    07:00 +1°C° 0 mm 2 mps 738 mmHg 89%
    08:00 +1°C° 0 mm 3 mps 738 mmHg 85%
    09:00 +2°C° 0 mm 3 mps 739 mmHg 81%
    10:00 +3°C° 0 mm 3 mps 739 mmHg 77%
    11:00 +3°C° 0 mm 4 mps 739 mmHg 75%
    12:00 +4°C° 0 mm 4 mps 740 mmHg 72%
    13:00 +5°C° 0 mm 4 mps 740 mmHg 69%
    14:00 +4°C° 0 mm 3 mps 740 mmHg 72%
    15:00 +4°C° 0 mm 3 mps 740 mmHg 74%
    16:00 +3°C° 0 mm 3 mps 740 mmHg 76%
    17:00 +3°C° 0 mm 2 mps 740 mmHg 79%
    18:00 +2°C° 0 mm 2 mps 740 mmHg 82%
    19:00 +1°C° 0 mm 2 mps 741 mmHg 85%
    20:00 +1°C° 0 mm 2 mps 741 mmHg 86%
    21:00 +1°C° 0 mm 2 mps 741 mmHg 86%
    22:00 +2°C° 0 mm 1 mps 741 mmHg 86%
    23:00 +2°C° 0 mm 1 mps 741 mmHg 85%

    16 December, Sunday

    Time Temperature Precipitation Wind Pressure Humidity
    00:00 +2°C° 0 mm 1 mps 741 mmHg 85%
    01:00 +1°C° 0 mm 1 mps 741 mmHg 85%
    02:00 +1°C° 0 mm 1 mps 741 mmHg 84%
    03:00 +1°C° 0 mm 1 mps 741 mmHg 84%
    04:00 +1°C° 0 mm 1 mps 741 mmHg 83%
    05:00 +2°C° 0 mm 1 mps 741 mmHg 83%
    06:00 +2°C° 0 mm 1 mps 740 mmHg 82%
    07:00 +2°C° 0 mm 1 mps 740 mmHg 81%
    08:00 +3°C° 0 mm 1 mps 741 mmHg 76%
    09:00 +4°C° 0 mm 1 mps 741 mmHg 71%
    10:00 +4°C° 0 mm 0 mps 741 mmHg 65%
    11:00 +6°C° 0 mm 1 mps 741 mmHg 61%
    12:00 +7°C° 0 mm 1 mps 741 mmHg 57%
    13:00 +8°C° 0 mm 1 mps 740 mmHg 53%
    14:00 +7°C° 0 mm 1 mps 740 mmHg 58%
    15:00 +7°C° 0 mm 1 mps 740 mmHg 63%
    16:00 +6°C° 0 mm 1 mps 740 mmHg 67%
    17:00 +6°C° 0.3 mm 1 mps 739 mmHg 71%
    18:00 +6°C° 0.3 mm 1 mps 739 mmHg 74%
    19:00 +5°C° 0.3 mm 1 mps 739 mmHg 77%
    20:00 +5°C° 0.9 mm 1 mps 739 mmHg 80%
    21:00 +5°C° 0.9 mm 1 mps 739 mmHg 82%
    22:00 +5°C° 0.9 mm 1 mps 739 mmHg 85%
    23:00 +5°C° 0.9 mm 1 mps 739 mmHg 87%

    17 December, Monday

    Time Temperature Precipitation Wind Pressure Humidity
    00:00 +5°C° 0.9 mm 1 mps 739 mmHg 89%
    01:00 +5°C° 0.9 mm 1 mps 738 mmHg 91%
    02:00 +5°C° 0.9 mm 1 mps 738 mmHg 91%
    03:00 +5°C° 0.9 mm 1 mps 738 mmHg 92%
    04:00 +5°C° 0.9 mm 1 mps 738 mmHg 92%
    05:00 +5°C° 0.2 mm 1 mps 738 mmHg 93%
    06:00 +4°C° 0.2 mm 1 mps 738 mmHg 93%
    07:00 +4°C° 0.2 mm 1 mps 739 mmHg 94%
    08:00 +5°C° 0 mm 1 mps 739 mmHg 91%
    09:00 +5°C° 0 mm 2 mps 740 mmHg 89%
    10:00 +5°C° 0 mm 2 mps 740 mmHg 86%
    11:00 +6°C° 0 mm 2 mps 740 mmHg 84%
    12:00 +7°C° 0 mm 2 mps 741 mmHg 81%
    13:00 +8°C° 0 mm 2 mps 741 mmHg 79%
    14:00 +7°C° 0 mm 2 mps 741 mmHg 81%
    15:00 +7°C° 0 mm 2 mps 741 mmHg 84%
    16:00 +7°C° 0 mm 1 mps 741 mmHg 87%
    17:00 +6°C° 0 mm 1 mps 741 mmHg 89%
    18:00 +6°C° 0 mm 1 mps 741 mmHg 90%
    19:00 +4°C° 0 mm 2 mps 741 mmHg 92%
    20:00 +4°C° 0 mm 2 mps 741 mmHg 92%
    21:00 +4°C° 0 mm 2 mps 742 mmHg 93%
    22:00 +4°C° 0 mm 2 mps 742 mmHg 93%
    23:00 +4°C° 0 mm 2 mps 742 mmHg 92%

    18 December, Tuesday

    Time Temperature Precipitation Wind Pressure Humidity
    00:00 +4°C° 0 mm 2 mps 742 mmHg 92%
    01:00 +5°C° 0 mm 2 mps 742 mmHg 92%
    02:00 +4°C° 0 mm 2 mps 742 mmHg 92%
    03:00 +4°C° 0 mm 2 mps 742 mmHg 93%
    04:00 +4°C° 0 mm 2 mps 741 mmHg 93%
    05:00 +4°C° 0 mm 2 mps 742 mmHg 93%
    06:00 +4°C° 0 mm 2 mps 742 mmHg 92%
    07:00 +4°C° 0 mm 2 mps 742 mmHg 92%
    08:00 +5°C° 0 mm 2 mps 743 mmHg 89%
    09:00 +4°C° 0 mm 3 mps 743 mmHg 86%
    10:00 +5°C° 0 mm 3 mps 744 mmHg 83%
    11:00 +7°C° 0 mm 3 mps 743 mmHg 80%
    12:00 +7°C° 0 mm 3 mps 743 mmHg 77%
    13:00 +8°C° 0 mm 3 mps 743 mmHg 74%
    14:00 +7°C° 0 mm 2 mps 743 mmHg 76%
    15:00 +7°C° 0 mm 2 mps 743 mmHg 79%
    16:00 +6°C° 0 mm 2 mps 743 mmHg 82%
    17:00 +6°C° 0 mm 1 mps 743 mmHg 84%
    18:00 +5°C° 0 mm 1 mps 743 mmHg 87%
    19:00 +4°C° 0 mm 1 mps 743 mmHg 90%
    20:00 +4°C° 0 mm 1 mps 743 mmHg 89%
    21:00 +4°C° 0 mm 1 mps 743 mmHg 89%
    22:00 +4°C° 0 mm 1 mps 743 mmHg 89%
    23:00 +4°C° 0 mm 1 mps 743 mmHg 88%
    Show more